アトラス彗星

C/2019 N1 ( ATLAS )

English version
Home page
Updated on September 18, 2021

---------------------------------------------------------------------

・ プロフィール

発見日 2019年7月5日
発見光度 18.6等
発見者 Asteroid Terrestrial-Impact Last Alert System (ATLAS) search program

・ 写真集

・ 軌道要素

Epoch 2020 Dec. 17.0 TT = JDT 2459200.5
T 2020 Dec. 1.80229 TT                                  Rudenko
q   1.7046516            (2000.0)            P               Q
z  +0.0000169      Peri.  193.44408     -0.93824302     +0.25608269
 +/-0.0000007      Node    13.57320     -0.14507120     +0.31925530
e   0.9999713      Incl.   82.42749     -0.31409297     -0.91241312
From 1724 observations 2019 June 10-2021 May 14, mean residual 0".8.

・ 星図

・ 光度変化

        m1 = 8.5 + 5 logΔ + 8.0 log r(t + 30)

---------------------------------------------------------------------

軌道要素はM.P.E.C. 2021-L04に掲載されたものです。
星図はステラナビゲータ Ver.10 (アストロアーツ) で作成したものです。
光度グラフはComet for Windowsで作成したものです。

---------------------------------------------------------------------

Copyright(C) Seiichi Yoshida (comet@aerith.net). All rights reserved.